Flag for Germany Weather past 2 weeks in Pfaffenhofen an der Ilm, Bavaria, Germany

Now
34 °F

Passing clouds.


Feels Like: 27 °F
Forecast: 31 / 35 °F
Wind: 8 mph from West

Location: Ingolstadt Airport

Current Time: Jan 29, 2015 at 10:00:20 AM

Latest Report: Jan 29, 2015 at 9:20 AM


Visibility: N/A

Pressure: 29.50 "Hg

Humidity: 87%

Dew point: 30 °F

Location of Pfaffenhofen an der IlmLocation

Historic Weather in Pfaffenhofen an der Ilm — Graph

°F

Pfaffenhofen an der Ilm temperature yesterday

Maximum temperature yesterday: 37 °F (at 1:20 PM)
Minimum temperature yesterday: 32 °F (at 7:20 AM)
Average temperature yesterday: 34 °F

Past Weeks' High & Low Weather Summary

 TemperatureHumidityPressure
High46 °F (Jan 14, 8:20 AM)100% (Jan 15, 12:20 AM)30.36 "Hg (Jan 15, 12:20 AM)
Low28 °F (Jan 15, 2:20 AM)70% (Jan 26, 3:20 PM)29.50 "Hg (Jan 29, 1:20 AM)
Average34 °F91%29.98 "Hg
* Reported Jan 14 8:20 AM — Jan 29 8:20 AM, Pfaffenhofen an der Ilm, Weather by CustomWeather, © 2014

Note: Actual official high and low records may vary slightly from our data, if they occured in-between our weather recording intervals... More about our weather records

Advertising

Pfaffenhofen an der Ilm weather history for previous 24 hours

 ConditionsComfort  
Time TempWeatherWind HumidityBarometerVisibility
8:20 AM
Jan 29
30 °FScattered clouds.7 mph93%29.53 "HgN/A
7:20 AM32 °FPartly cloudy.8 mph93%29.53 "HgN/A
6:20 AM32 °FPartly cloudy.9 mph93%29.50 "HgN/A
5:20 AM34 °FPartly cloudy.6 mph87%29.50 "HgN/A
4:20 AM34 °FChilly.8 mph81%29.53 "HgN/A
3:20 AM36 °FChilly.8 mph93%29.50 "HgN/A
2:20 AM36 °FChilly.12 mph93%29.50 "HgN/A
1:20 AM36 °FChilly.15 mph93%29.50 "HgN/A
12:20 AM36 °FChilly.13 mph93%29.53 "HgN/A
11:20 PM
Jan 28
34 °FChilly.13 mph93%29.53 "HgN/A
10:20 PM34 °FChilly.12 mph93%29.59 "HgN/A
9:20 PM36 °FPartly cloudy.14 mph75%29.62 "HgN/A
8:20 PM34 °FPassing clouds.10 mph75%29.68 "HgN/A
7:20 PM34 °FChilly.9 mph75%29.74 "HgN/A
6:20 PM34 °FPartly cloudy.8 mph75%29.77 "HgN/A
5:20 PM36 °FPassing clouds.12 mph75%29.83 "HgN/A
4:20 PM36 °FPartly sunny.15 mph75%29.86 "HgN/A
3:20 PM37 °FPartly sunny.13 mph75%29.89 "HgN/A
2:20 PM37 °FPartly sunny.14 mph75%29.92 "HgN/A
1:20 PM37 °FPartly sunny.14 mph75%29.98 "HgN/A
12:20 PM36 °FPartly sunny.12 mph87%30.01 "HgN/A
11:20 AM36 °FPartly sunny.10 mph87%30.04 "HgN/A
10:20 AM34 °FPartly sunny.10 mph87%30.07 "HgN/A
Weather by CustomWeather, © 2014

See weather overviewHow to use our weather pages